Satellite-Ground Cal/Val Site Overpasses Predictions

Prediction of Satellite NPP Overpassing Cal/Val Site: Antarctic Dome C

Ground Cal/Val Site Location: Latitude: -75.10, Longitude: 123.35; Satellite-Ground Site NADIR distance within 100 km.

Table of predicted overpasses for the next 14.0 days since TLE Epoch: 7/31/2020
Interval Starting Time Ending Time Minimum Distance Time Minimum Distance (km)
1 08/01/2020 14:54:46 08/01/2020 14:55:15 08/01/2020 14:55:01 21.26
2 08/02/2020 14:36:05 08/02/2020 14:36:20 08/02/2020 14:36:13 85.73
3 08/03/2020 07:37:37 08/03/2020 07:38:05 08/03/2020 07:37:51 33.96
4 08/04/2020 07:18:53 08/04/2020 07:19:12 08/04/2020 07:19:02 76.09
5 08/06/2020 15:01:08 08/06/2020 15:01:32 08/06/2020 15:01:20 58.41
6 08/07/2020 14:42:18 08/07/2020 14:42:43 08/07/2020 14:42:31 50.69
7 08/08/2020 07:44:00 08/08/2020 07:44:21 08/08/2020 07:44:10 69.35
8 08/09/2020 07:25:07 08/09/2020 07:25:34 08/09/2020 07:25:21 38.56
9 08/11/2020 15:07:35 08/11/2020 15:07:42 08/11/2020 15:07:39 96.26
10 08/12/2020 14:48:35 08/12/2020 14:49:04 08/12/2020 14:48:50 14.93
